TimeEDT,TemperatureF,Dew PointF,Humidity,Sea Level PressureIn,VisibilityMPH,Wind Direction,Wind SpeedMPH,Gust SpeedMPH,PrecipitationIn,Events,Conditions,WindDirDegrees,DateUTC
12:04 AM,55.4,55.4,100,30.11,0.5,Calm,Calm,-,N/A,Fog,Fog,0,2012-10-11 04:04:00
12:53 AM,53.1,53.1,100,30.12,0.5,Calm,Calm,-,N/A,Fog,Fog,0,2012-10-11 04:53:00
1:01 AM,53.6,53.6,100,30.12,2.0,Calm,Calm,-,N/A,,Clear,0,2012-10-11 05:01:00
1:24 AM,53.6,53.6,100,30.12,3.0,Calm,Calm,-,N/A,,Clear,0,2012-10-11 05:24:00
1:26 AM,53.6,53.6,100,30.12,1.8,Calm,Calm,-,N/A,,Clear,0,2012-10-11 05:26:00
1:53 AM,53.1,53.1,100,30.13,0.8,Calm,Calm,-,N/A,,Clear,0,2012-10-11 05:53:00
2:02 AM,53.6,53.6,100,30.13,2.5,Calm,Calm,-,N/A,,Clear,0,2012-10-11 06:02:00
2:10 AM,53.6,53.6,100,30.13,3.0,Calm,Calm,-,N/A,,Clear,0,2012-10-11 06:10:00
2:26 AM,53.6,51.8,94,30.14,3.0,Calm,Calm,-,N/A,,Clear,0,2012-10-11 06:26:00
2:34 AM,53.6,53.6,100,30.14,1.5,Calm,Calm,-,N/A,,Clear,0,2012-10-11 06:34:00
2:53 AM,53.1,53.1,100,30.14,1.8,Calm,Calm,-,N/A,,Scattered Clouds,0,2012-10-11 06:53:00
2:56 AM,53.6,53.6,100,30.14,3.0,North,3.5,-,N/A,,Scattered Clouds,350,2012-10-11 06:56:00
3:01 AM,51.8,51.8,100,30.14,1.8,North,3.5,-,N/A,,Partly Cloudy,350,2012-10-11 07:01:00
3:16 AM,53.6,53.6,100,30.14,3.0,Calm,Calm,-,N/A,,Scattered Clouds,0,2012-10-11 07:16:00
3:53 AM,54.0,53.1,97,30.15,10.0,North,4.6,-,N/A,,Clear,350,2012-10-11 07:53:00
4:53 AM,55.0,50.0,83,30.16,10.0,North,5.8,-,N/A,,Clear,10,2012-10-11 08:53:00
5:53 AM,54.0,48.9,83,30.18,10.0,NNE,6.9,-,N/A,,Clear,20,2012-10-11 09:53:00
6:53 AM,53.1,48.0,83,30.20,10.0,NNE,9.2,-,N/A,,Clear,20,2012-10-11 10:53:00
7:53 AM,53.1,48.0,83,30.22,10.0,NNE,10.4,-,N/A,,Clear,30,2012-10-11 11:53:00
8:53 AM,57.0,46.9,69,30.23,10.0,NNE,16.1,21.9,N/A,,Clear,30,2012-10-11 12:53:00
9:53 AM,61.0,46.9,60,30.25,10.0,NNE,12.7,20.7,N/A,,Clear,30,2012-10-11 13:53:00
10:53 AM,64.9,46.9,52,30.27,10.0,NNE,13.8,-,N/A,,Clear,30,2012-10-11 14:53:00
11:53 AM,66.9,46.9,49,30.27,10.0,NE,12.7,-,N/A,,Clear,40,2012-10-11 15:53:00
12:53 PM,68.0,46.0,45,30.27,10.0,Variable,3.5,-,N/A,,Clear,0,2012-10-11 16:53:00
1:53 PM,71.1,46.9,42,30.25,10.0,NE,5.8,-,N/A,,Clear,40,2012-10-11 17:53:00
2:53 PM,70.0,48.9,47,30.24,10.0,SE,8.1,-,N/A,,Clear,140,2012-10-11 18:53:00
3:53 PM,69.1,48.0,47,30.24,10.0,SE,6.9,-,N/A,,Clear,140,2012-10-11 19:53:00
4:53 PM,70.0,48.9,47,30.23,10.0,SE,5.8,-,N/A,,Clear,140,2012-10-11 20:53:00
6:53 PM,62.1,54.0,75,30.23,10.0,Calm,Calm,-,N/A,,Clear,0,2012-10-11 22:53:00
7:53 PM,57.0,54.0,89,30.24,10.0,Calm,Calm,-,N/A,,Clear,0,2012-10-11 23:53:00
9:53 PM,53.1,51.1,93,30.25,9.0,NE,4.6,-,N/A,,Clear,40,2012-10-12 01:53:00
10:53 PM,54.0,52.0,93,30.25,9.0,Calm,Calm,-,N/A,,Clear,0,2012-10-12 02:53:00
11:53 PM,52.0,51.1,97,30.24,6.0,Calm,Calm,-,N/A,,Clear,0,2012-10-12 03:53:00